sat.trackr.live / text

‹ back to catalog

HULIANWANG DIGUI-92

NORAD 66000 · 2025-231F

PAYLOAD ACTIVE UNKNOWN

§ Identity

Operator
Country
PRC
Launch date
2025-10-16
Launch site
WSC
Launch vehicle
Mass (kg)
RCS (m²)

External: N2YO · Heavens-Above · Gunter

§ Orbital elements

Epoch: 2026-05-25T01:14:25.939968Z

Period
108.33 min
Inclination
50.0055°
Eccentricity
0.0000906
Mean motion
13.29328307 rev/d
Perigee alt
1,148.6 km
Apogee alt
1,150.0 km
Semi-major
7,527.4 km
B*
4.5908e-5
RAAN
258.6266°
Arg perigee
151.5501°
Mean anomaly
208.5420°
Rev number
2,981

§ Raw data

HULIANWANG DIGUI-921 66000U 25231F   26145.05168912 -.00000103  00000+0  45908-4 0  99992 66000  50.0055 258.6266 0000906 151.5501 208.5420 13.29328307 29816

JSON: /api/v1/satellites/66000 · /tle

For live sub-satellite position, see the globe view (requires WebGL).

§ Visibility from observer

Set your observer location to see the next 7 days of passes ≥ 10°. The values pass through the URL so the page stays shareable.

No JS? Fill the form by hand. The geolocation button needs JavaScript.